FW3260 Weather Reports


Display with metric or nautical units.
time (UTC)temp
F
wind
direction
speed
MPH
gust
MPH
rain 1hr
in
rain 24hr
in
rain mn
in
humidity
%
barometer
mb
20260831083538 63 0.0 0.0 0.00 0.00 0.00 91 1019.7
20260831082518 63 0.0 2.0 0.00 0.00 0.00 91 1019.5
20260831081518 63 0.0 0.0 0.00 0.00 0.00 91 1019.5
20260831080538 63 0.0 0.0 0.00 0.00 0.00 91 1019.5
20260831075517 63 0.0 0.0 0.00 0.00 0.00 92 1019.4
20260831074518 63 0.0 0.0 0.00 0.00 0.00 91 1019.3
20260831073518 63 0.0 0.0 0.00 0.00 0.00 91 1019.1
20260831072518 63 0.0 0.0 0.00 0.00 0.00 91 1019.1
20260831071518 63 0.0 0.0 0.00 0.00 0.00 91 1019.0
20260831070558 63 0.0 0.0 0.00 0.00 0.00 91 1018.9
20260831065518 64 0.0 0.0 0.00 0.00 0.00 91 1018.9
20260831064518 64 0.0 1.0 0.00 0.00 0.00 91 1019.0
20260831063518 64 0.0 2.0 0.00 0.00 0.00 91 1019.1
20260831062518 64 0.0 0.0 0.00 0.00 0.00 91 1019.2
20260831061518 64 0.0 0.0 0.00 0.00 0.00 91 1019.1
20260831060518 65 0.0 0.0 0.00 0.00 0.00 90 1019.0
20260831055517 65 0.0 0.0 0.00 0.00 0.00 90 1018.9
20260831054518 65 0.0 0.0 0.00 0.00 0.00 90 1018.9
20260831053517 66 0.0 0.0 0.00 0.00 0.00 90 1018.8
20260831052518 66 0.0 0.0 0.00 0.00 0.00 89 1018.7
20260831051517 66 0.0 0.0 0.00 0.00 0.00 89 1018.7
20260831050518 66 0.0 0.0 0.00 0.00 0.00 89 1018.6
20260831045519 67 0.0 0.0 0.00 0.00 0.00 89 1018.6
20260831044519 67 0.0 0.0 0.00 0.00 0.00 88 1018.6
20260831043519 68 0.0 0.0 0.00 0.00 0.00 88 1018.4
20260831042519 68 0.0 1.0 0.00 0.00 0.00 88 1018.4
20260831041520 68 0.0 0.0 0.00 0.00 0.00 88 1018.4
20260831040519 69 0.0 0.0 0.00 0.00 0.00 87 1018.4
20260831035518 69 0.0 1.0 0.00 0.00 0.00 87 1018.4
20260831034538 69 0.0 0.0 0.00 0.00 0.00 87 1018.3
20260831033518 69 0.0 0.0 0.00 0.00 0.00 87 1018.2
20260831032518 70 248 1.0 3.0 0.00 0.00 0.00 86 1018.2
20260831031518 70 0.0 0.0 0.00 0.00 0.00 86 1018.2
20260831030518 71 225 2.0 4.0 0.00 0.00 0.00 85 1018.2
20260831025518 71 225 2.0 6.0 0.00 0.00 0.00 84 1018.3
20260831024518 72 293 1.0 4.0 0.00 0.00 0.00 83 1018.3
20260831023518 73 225 1.0 3.0 0.00 0.00 0.00 82 1018.4
20260831022518 73 248 1.0 4.0 0.00 0.00 0.00 80 1018.5
20260831021518 73 225 2.0 6.0 0.00 0.00 0.00 78 1018.4
20260831020518 73 248 1.0 2.0 0.00 0.00 0.00 77 1018.2
20260831015538 73 0.0 2.0 0.00 0.00 0.00 76 1018.3
20260831014538 73 293 1.0 3.0 0.00 0.00 0.00 76 1017.9
20260831013518 74 0.0 3.0 0.00 0.00 0.00 76 1017.9
20260831012517 74 248 1.0 3.0 0.00 0.00 0.00 75 1017.9
20260831011517 74 315 1.0 3.0 0.00 0.00 0.00 75 1017.8
20260831010518 74 270 1.0 3.0 0.00 0.00 0.00 74 1017.8
20260831005517 74 0.0 2.0 0.00 0.00 0.00 73 1017.8
20260831004518 74 293 1.0 7.0 0.00 0.00 0.00 73 1017.6
20260831003519 74 338 1.0 5.0 0.00 0.00 0.00 73 1017.4
20260831002519 74 338 2.0 4.0 0.00 0.00 0.00 73 1017.3
20260831001539 74 315 2.0 7.0 0.00 0.00 0.00 72 1017.4
20260831000519 74 293 1.0 4.0 0.00 0.00 0.00 72 1017.4
20260830235539 75 315 1.0 3.0 0.00 0.00 0.00 71 1017.2
20260830234518 75 315 1.0 4.0 0.00 0.00 0.00 71 1017.2
20260830233519 75 315 1.0 3.0 0.00 0.00 0.00 70 1017.2
20260830232519 75 293 2.0 4.0 0.00 0.00 0.00 69 1017.2
20260830231539 76 315 1.0 3.0 0.00 0.00 0.00 68 1017.2
20260830230519 76 0.0 4.0 0.00 0.00 0.00 67 1017.2
20260830225540 76 293 2.0 4.0 0.00 0.00 0.00 67 1017.2
20260830224519 77 315 1.0 3.0 0.00 0.00 0.00 66 1017.4
20260830223519 77 315 2.0 6.0 0.00 0.00 0.00 65 1017.4
20260830222519 77 315 2.0 4.0 0.00 0.00 0.00 64 1017.5
20260830221600 77 315 2.0 5.0 0.00 0.00 0.00 62 1017.4
20260830220519 77 338 1.0 4.0 0.00 0.00 0.00 61 1017.5
20260830215519 77 0 1.0 4.0 0.00 0.00 0.00 61 1017.5
20260830214519 78 315 2.0 7.0 0.00 0.00 0.00 60 1017.5
20260830213519 78 315 1.0 4.0 0.00 0.00 0.00 59 1017.5
20260830212539 78 293 1.0 3.0 0.00 0.00 0.00 59 1017.6
20260830211519 78 225 1.0 7.0 0.00 0.00 0.00 57 1017.7
20260830210519 78 315 2.0 8.0 0.00 0.00 0.00 55 1017.7
20260830205539 78 315 3.0 9.0 0.00 0.00 0.00 55 1017.6
20260830204519 78 293 3.0 7.0 0.00 0.00 0.00 55 1017.6
20260830203519 78 293 2.0 6.0 0.00 0.00 0.00 56 1017.5
20260830202519 78 45 2.0 10.0 0.00 0.00 0.00 56 1017.7
20260830201520 78 315 1.0 5.0 0.00 0.00 0.00 60 1017.9
20260830200519 78 315 1.0 3.0 0.00 0.00 0.00 61 1018.0
20260830195519 79 315 1.0 3.0 0.00 0.00 0.00 57 1018.1
20260830194519 79 270 1.0 4.0 0.00 0.00 0.00 55 1018.3
20260830193519 79 270 1.0 4.0 0.00 0.00 0.00 56 1018.4
20260830192539 79 315 2.0 4.0 0.00 0.00 0.00 56 1018.6
20260830191519 79 293 2.0 4.0 0.00 0.00 0.00 56 1018.7
20260830190519 79 293 2.0 8.0 0.00 0.00 0.00 57 1018.9
20260830185519 79 270 1.0 4.0 0.00 0.00 0.00 57 1019.0
20260830184519 79 270 2.0 7.0 0.00 0.00 0.00 56 1019.1
20260830183539 79 270 1.0 6.0 0.00 0.00 0.00 57 1019.3
20260830182518 80 293 1.0 4.0 0.00 0.00 0.00 57 1019.3
20260830181519 80 270 1.0 4.0 0.00 0.00 0.00 56 1019.3
20260830180519 80 293 1.0 3.0 0.00 0.00 0.00 54 1019.2
20260830175519 80 315 2.0 4.0 0.00 0.00 0.00 53 1019.3
20260830174519 80 180 1.0 6.0 0.00 0.00 0.00 55 1019.4
20260830173519 80 315 2.0 5.0 0.00 0.00 0.00 54 1019.7
20260830172519 80 225 2.0 5.0 0.00 0.00 0.00 56 1019.8
20260830171519 80 203 2.0 6.0 0.00 0.00 0.00 54 1019.6
20260830170539 81 293 2.0 5.0 0.00 0.00 0.00 54 1019.6
20260830165519 81 315 2.0 6.0 0.00 0.00 0.00 50 1019.9
20260830164519 82 293 3.0 6.0 0.00 0.00 0.00 51 1020.0
20260830163519 81 293 3.0 10.0 0.00 0.00 0.00 54 1020.1
20260830162519 81 293 2.0 5.0 0.00 0.00 0.00 54 1020.2
20260830161519 81 315 2.0 5.0 0.00 0.00 0.00 55 1020.2
20260830160518 81 315 2.0 4.0 0.00 0.00 0.00 53 1020.3
20260830155539 80 293 1.0 4.0 0.00 0.00 0.00 58 1020.4
20260830154518 81 293 2.0 7.0 0.00 0.00 0.00 53 1020.3
20260830153518 80 270 2.0 7.0 0.00 0.00 0.00 54 1020.4
20260830152519 80 293 2.0 4.0 0.00 0.00 0.00 53 1020.5
20260830151538 80 315 3.0 7.0 0.00 0.00 0.00 53 1020.5
20260830150519 80 315 2.0 8.0 0.00 0.00 0.00 56 1020.7
20260830145518 78 293 3.0 8.0 0.00 0.00 0.00 57 1020.8
20260830144519 80 293 2.0 9.0 0.00 0.00 0.00 56 1020.8
20260830143519 79 315 3.0 8.0 0.00 0.00 0.00 58 1020.8
20260830142518 78 315 2.0 8.0 0.00 0.00 0.00 62 1020.9
20260830141518 77 315 2.0 8.0 0.00 0.00 0.00 58 1020.9
20260830140519 76 293 2.0 8.0 0.00 0.00 0.00 61 1020.9
20260830135518 75 315 2.0 8.0 0.00 0.00 0.00 63 1021.0
20260830134518 75 315 2.0 4.0 0.00 0.00 0.00 63 1021.0
20260830133518 74 315 3.0 9.0 0.00 0.00 0.00 65 1021.1
20260830132518 73 315 3.0 8.0 0.00 0.00 0.00 68 1021.1
20260830131518 71 293 2.0 4.0 0.00 0.00 0.00 70 1021.2
20260830130518 71 293 2.0 4.0 0.00 0.00 0.00 67 1021.2
20260830125518 70 293 1.0 5.0 0.00 0.00 0.00 68 1021.3
20260830124538 69 315 1.0 3.0 0.00 0.00 0.00 69 1021.3
20260830123518 69 293 1.0 4.0 0.00 0.00 0.00 70 1021.5
20260830122518 68 293 2.0 5.0 0.00 0.00 0.00 71 1021.5
20260830121519 67 293 1.0 5.0 0.00 0.00 0.00 73 1021.6
20260830120518 65 203 1.0 4.0 0.00 0.00 0.00 75 1021.6
20260830115518 65 0.0 2.0 0.00 0.00 0.00 75 1021.7
20260830114518 64 0.0 2.0 0.00 0.00 0.00 75 1021.6
20260830113518 64 0.0 3.0 0.00 0.00 0.00 75 1021.6
20260830112518 64 293 1.0 3.0 0.00 0.00 0.00 75 1021.7
20260830111518 64 0.0 2.0 0.00 0.00 0.00 75 1021.7
20260830110538 64 248 1.0 5.0 0.00 0.00 0.00 75 1021.6
20260830105518 63 293 1.0 5.0 0.00 0.00 0.00 75 1021.6
20260830104538 63 248 1.0 2.0 0.00 0.00 0.00 75 1021.7
20260830103518 63 293 1.0 4.0 0.00 0.00 0.00 74 1021.7
20260830102518 63 293 1.0 4.0 0.00 0.00 0.00 74 1021.7
20260830101518 63 293 1.0 4.0 0.00 0.00 0.00 74 1021.8
20260830100518 63 315 1.0 8.0 0.00 0.00 0.00 74 1021.9
20260830095518 63 293 1.0 8.0 0.00 0.00 0.00 75 1022.0
20260830094518 63 293 2.0 8.0 0.00 0.00 0.00 75 1021.9
20260830093518 63 270 1.0 4.0 0.00 0.00 0.00 76 1021.7
20260830092538 63 0.0 1.0 0.00 0.00 0.00 76 1021.8
20260830091538 63 338 1.0 3.0 0.00 0.00 0.00 76 1021.7
20260830090518 63 248 1.0 4.0 0.00 0.00 0.00 77 1021.8
20260830085538 62 248 1.0 3.0 0.00 0.00 0.00 78 1022.0
20260830084517 62 338 1.0 3.0 0.00 0.00 0.00 79 1022.0